Voltar ao catálogo

ARIANE 3 R/B

AtivoHEO
NORAD 15388·ROCKET BODY·🇫🇷 France

Lançado Nov 10, 1984 de Guiana Space Centre

Loading…

Próximas Passagens (próximas 24 horas)

TLE

AtualizadoSource: Space-Track

Época: Sep 14, 2026, 03:10 UTC

1 15388U 84114C   26257.13227280  .00001099  00000-0  12826-2 0  9990
2 15388   7.2838  54.0774 6870499 326.3969   4.6567  2.76094089307578

Acompanhe ARIANE 3 R/B em tempo real com AllMySat

Download on the App Store